Time,TemperatureF,DewpointF,PressureIn,WindDirection,WindDirectionDegrees,WindSpeedMPH,WindSpeedGustMPH,Humidity,HourlyPrecipIn,Conditions,Clouds,dailyrainin,SoftwareType,DateUTC
2017-10-20 00:03:00,45.9,16.2,30.03,WSW,248,0.0,0.0,30,0.00,,,0.00,meteobridge,2017-10-19 22:03:00,
2017-10-20 00:08:00,45.9,16.2,30.03,WSW,248,0.0,0.0,30,0.00,,,0.00,meteobridge,2017-10-19 22:08:00,
2017-10-20 00:13:00,45.5,15.8,30.03,WSW,248,0.0,0.0,30,0.00,,,0.00,meteobridge,2017-10-19 22:13:00,
2017-10-20 00:18:00,45.1,15.6,30.03,WSW,248,0.0,0.0,30,0.00,,,0.00,meteobridge,2017-10-19 22:18:00,
2017-10-20 00:23:00,45.1,15.6,30.03,WSW,248,0.0,0.0,30,0.00,,,0.00,meteobridge,2017-10-19 22:23:00,
2017-10-20 00:28:00,45.1,15.6,30.03,WSW,248,0.0,0.0,30,0.00,,,0.00,meteobridge,2017-10-19 22:28:00,
2017-10-20 00:33:00,44.8,15.3,30.03,WSW,248,0.0,0.0,30,0.00,,,0.00,meteobridge,2017-10-19 22:33:00,
2017-10-20 00:39:00,44.2,15.4,30.03,WSW,248,0.0,0.0,31,0.00,,,0.00,meteobridge,2017-10-19 22:39:00,
2017-10-20 00:44:00,44.1,15.3,30.03,WSW,248,0.0,0.0,31,0.00,,,0.00,meteobridge,2017-10-19 22:44:00,
2017-10-20 00:50:00,44.8,16.7,30.03,NW,315,2.5,3.1,32,0.00,,,0.00,meteobridge,2017-10-19 22:50:00,
2017-10-20 00:55:00,45.3,16.5,30.03,NNW,338,2.0,2.2,31,0.00,,,0.00,meteobridge,2017-10-19 22:55:00,
2017-10-20 01:00:00,45.5,16.5,30.03,NNW,338,0.0,1.3,31,0.00,,,0.00,meteobridge,2017-10-19 23:00:00,
2017-10-20 01:06:00,45.0,16.2,30.03,NW,315,0.0,0.0,31,0.00,,,0.00,meteobridge,2017-10-19 23:06:00,
2017-10-20 01:11:00,44.8,16.0,30.03,NW,315,0.0,0.0,31,0.00,,,0.00,meteobridge,2017-10-19 23:11:00,
2017-10-20 01:16:00,44.6,15.8,30.03,NW,315,0.0,0.0,31,0.00,,,0.00,meteobridge,2017-10-19 23:16:00,
2017-10-20 01:21:00,44.6,15.8,30.03,NW,315,0.0,0.0,31,0.00,,,0.00,meteobridge,2017-10-19 23:21:00,
2017-10-20 01:26:00,44.4,15.6,30.03,NW,315,0.9,0.9,31,0.00,,,0.00,meteobridge,2017-10-19 23:26:00,
2017-10-20 01:31:00,44.4,15.6,30.03,NW,315,1.3,2.0,31,0.00,,,0.00,meteobridge,2017-10-19 23:31:00,
2017-10-20 01:37:00,44.2,15.4,30.03,NW,315,1.3,1.3,31,0.00,,,0.00,meteobridge,2017-10-19 23:37:00,
2017-10-20 01:42:00,44.1,15.3,30.03,WNW,292,0.9,2.0,31,0.00,,,0.00,meteobridge,2017-10-19 23:42:00,
2017-10-20 01:47:00,44.1,15.3,30.03,WNW,292,1.3,1.6,31,0.00,,,0.00,meteobridge,2017-10-19 23:47:00,
2017-10-20 01:52:00,44.1,15.3,30.03,WNW,292,2.0,2.0,31,0.00,,,0.00,meteobridge,2017-10-19 23:52:00,
2017-10-20 01:57:00,44.4,16.3,30.03,West,270,2.7,3.4,32,0.00,,,0.00,meteobridge,2017-10-19 23:57:00,
2017-10-20 02:02:00,44.6,16.5,30.03,West,270,1.3,2.7,32,0.00,,,0.00,meteobridge,2017-10-20 00:02:00,
2017-10-20 02:07:00,44.8,16.7,30.03,West,270,2.5,2.9,32,0.00,,,0.00,meteobridge,2017-10-20 00:07:00,
2017-10-20 02:12:00,45.0,16.9,30.03,West,270,1.6,2.5,32,0.00,,,0.00,meteobridge,2017-10-20 00:12:00,
2017-10-20 02:18:00,45.1,17.1,30.03,West,270,1.3,2.0,32,0.00,,,0.00,meteobridge,2017-10-20 00:18:00,
2017-10-20 02:23:00,45.1,17.1,30.03,West,270,0.9,2.5,32,0.00,,,0.00,meteobridge,2017-10-20 00:23:00,
2017-10-20 02:28:00,45.3,18.0,30.03,West,270,0.0,0.0,33,0.00,,,0.00,meteobridge,2017-10-20 00:28:00,
2017-10-20 02:33:00,45.3,18.0,30.03,West,270,0.0,1.6,33,0.00,,,0.00,meteobridge,2017-10-20 00:33:00,
2017-10-20 02:38:00,45.3,18.0,30.03,West,270,0.0,1.3,33,0.00,,,0.00,meteobridge,2017-10-20 00:38:00,
2017-10-20 02:43:00,45.3,18.0,30.03,West,270,1.6,2.5,33,0.00,,,0.00,meteobridge,2017-10-20 00:43:00,
2017-10-20 02:49:00,45.3,18.0,30.03,West,270,2.5,2.7,33,0.00,,,0.00,meteobridge,2017-10-20 00:49:00,
2017-10-20 02:50:00,45.3,18.0,30.03,West,270,1.6,2.5,33,0.00,,,0.00,meteobridge,2017-10-20 00:50:00,
2017-10-20 02:55:00,45.3,18.0,30.03,West,270,1.1,1.3,33,0.00,,,0.00,meteobridge,2017-10-20 00:55:00,
2017-10-20 03:00:00,45.5,18.1,30.03,West,270,1.3,1.6,33,0.00,,,0.00,meteobridge,2017-10-20 01:00:00,
2017-10-20 03:05:00,45.7,18.1,30.03,West,270,0.9,1.6,33,0.00,,,0.00,meteobridge,2017-10-20 01:05:00,
2017-10-20 03:11:00,45.7,18.1,30.03,West,270,2.2,2.7,33,0.00,,,0.00,meteobridge,2017-10-20 01:11:00,
2017-10-20 03:16:00,45.5,18.1,30.03,West,270,2.0,2.0,33,0.00,,,0.00,meteobridge,2017-10-20 01:16:00,
2017-10-20 03:21:00,45.7,18.1,30.03,West,270,1.3,1.3,33,0.00,,,0.00,meteobridge,2017-10-20 01:21:00,
2017-10-20 03:26:00,45.7,18.9,30.03,West,270,1.1,1.3,34,0.00,,,0.00,meteobridge,2017-10-20 01:26:00,
2017-10-20 03:31:00,45.9,19.0,30.03,West,270,0.0,0.9,34,0.00,,,0.00,meteobridge,2017-10-20 01:31:00,
2017-10-20 03:37:00,46.0,19.2,30.03,West,270,0.9,1.1,34,0.00,,,0.00,meteobridge,2017-10-20 01:37:00,
2017-10-20 03:42:00,46.0,19.2,30.03,West,270,0.0,1.1,34,0.00,,,0.00,meteobridge,2017-10-20 01:42:00,
2017-10-20 03:48:00,46.0,19.2,30.03,West,270,0.9,2.0,34,0.00,,,0.00,meteobridge,2017-10-20 01:48:00,
2017-10-20 03:53:00,46.2,19.4,30.03,West,270,1.1,1.3,34,0.00,,,0.00,meteobridge,2017-10-20 01:53:00,
2017-10-20 03:59:00,46.2,19.4,30.03,West,270,0.9,1.1,34,0.00,,,0.00,meteobridge,2017-10-20 01:59:00,
2017-10-20 04:04:00,46.4,19.6,30.03,WNW,292,1.6,2.2,34,0.00,,,0.00,meteobridge,2017-10-20 02:04:00,
2017-10-20 04:09:00,46.4,19.6,30.03,WNW,292,0.0,1.1,34,0.00,,,0.00,meteobridge,2017-10-20 02:09:00,
2017-10-20 04:14:00,46.4,19.6,30.03,WNW,292,0.0,0.0,34,0.00,,,0.00,meteobridge,2017-10-20 02:14:00,
2017-10-20 04:20:00,46.6,19.8,30.03,WNW,292,0.0,0.0,34,0.00,,,0.00,meteobridge,2017-10-20 02:20:00,
2017-10-20 04:25:00,46.6,19.8,30.03,WNW,292,0.0,0.0,34,0.00,,,0.00,meteobridge,2017-10-20 02:25:00,